Regional Weather Roundup
Issued by NWS

Home | Current Version | Previous Version | Graphics & Text | Print | Product List | Glossary On
Versions: 1 2 3 4 5 6 7 8 9 10 11 12 13 14 15 16 17 18 19 20 21 22 23 24 25 26 27 28 29 30 31 32 33 34 35 36 37 38 39 40 41 42 43 44 45 46 47 48 49 50
229
ASUS45 KTFX 131610
RWRMT
MONTANA REGIONAL WEATHER ROUNDUP
NATIONAL WEATHER SERVICE GREAT FALLS MT
900 AM MST SAT FEB 13 2016

NOTE: "FAIR" INDICATES FEW OR NO CLOUDS BELOW 12000 FEET WITH NO
SIGNIFICANT WEATHER AND/OR OBSTRUCTIONS TO VISIBILITY.

MTZ001>007-043-131700-
WEST OF THE DIVIDE

CITY           SKY/WX    TMP DP  RH WIND       PRES   REMARKS
KALISPELL      CLOUDY    37  32  82 S10       30.05R WCI  30
MISSOULA       CLOUDY    38  36  92 VRB5      30.13R
BUTTE          CLOUDY    33  24  69 NW13      30.05R WCI  24
MULLAN PASS    SNOW      26  25  96 NW9G23    30.09R VSB 1/4 WCI  17
ANACONDA         N/A     36  25  64 SW10G20   30.04R WCI  28
DEER LODGE       N/A     34  30  86 N7        30.07R WCI  28
HAMILTON         N/A     41  27  56 SE6       30.14R
PLAINS           N/A     40  36  86 SE1       30.12R
$$

MTZ008-052>055-131700-
SOUTHWEST MONTANA

CITY           SKY/WX    TMP DP  RH WIND       PRES   REMARKS
BOZEMAN        SNOW      33  32  96 NW8       30.05R VSB 1/2 WCI  26
DILLON         CLOUDY    35  28  75 NW15      30.06R WCI  25
ENNIS          CLOUDY    39  23  52 SW16G22   30.08R WCI  30
TWIN BRIDGES     N/A     37  25  62 W9        30.04R WCI  30
$$

MTZ009-010-012-014-046-048-049-054-131700-
EAST SLOPES AND CENTRAL MONTANA

CITY           SKY/WX    TMP DP  RH WIND       PRES   REMARKS
CUT BANK       SUNNY     37  26  64 W29G36    29.83S WCI  25
GREAT FALLS    CLOUDY    41  24  51 SW12      29.91R
MALMSTROM AFB  CLOUDY    41  28  60 SW22      29.90R
HELENA         CLOUDY    41  27  57 NW8       30.01R
CHOTEAU          N/A     43  23  45 N5        29.91R
CONRAD           N/A     40  27  60 SW10      29.89R
$$

MTZ011-013-016-021-045-047-050-051-131700-
NORTH CENTRAL MONTANA

CITY           SKY/WX    TMP DP  RH WIND       PRES   REMARKS
HAVRE          CLOUDY    32  30  92 SW17      29.83F WCI  21
LEWISTOWN      CLOUDY    43  33  68 NW5G21    29.87F
N BAR RANCH      N/A     41  34  75 W13G18    29.87S
CHINOOK          N/A    N/A N/A N/A CALM      29.85S
$$

MTZ017>020-022>027-061-062-131700-
NORTHEAST MONTANA

CITY           SKY/WX    TMP DP  RH WIND       PRES   REMARKS
GLASGOW        CLOUDY    21  16  81 E17       29.81F WCI   7
JORDAN           N/A     31  27  85 S5        29.81F
SIDNEY         CLOUDY    19  16  86 SE12      29.96F WCI   7
WOLF POINT     SUNNY     20  13  74 E13       29.88F WCI   7
PLENTYWOOD       N/A     16  10  79 SE20      29.91F WCI  -1
POPLAR           N/A     21  16  79 E8        29.90F WCI  12
SCOBEY           N/A     17   6  62 SE12      29.86F WCI   4
$$

MTZ028>42-056>058-131700-
SOUTHCENTRAL AND SOUTHEAST MONTANA

CITY           SKY/WX    TMP DP  RH WIND       PRES   REMARKS
BAKER          CLOUDY    25  21  85 SE15      29.92F WCI  13
BILLINGS       MOSUNNY   46  29  51 S8        29.85F
LIVINGSTON     CLOUDY    37  30  75 N33G45    29.95R WCI  24
MILES CITY     MOSUNNY   33  27  78 SE14      29.84F WCI  23
EKALAKA          N/A     29  23  78 E14       29.87F WCI  18
FORSYTH          N/A     30  28  93 CALM      29.83F
LAUREL           N/A     47  27  46 W2        29.85F
ROUNDUP          N/A     36  27  70 S14       29.77F WCI  27
$$

REGIONAL REPORTS...DAKOTAS

CITY           SKY/WX    TMP DP  RH WIND       PRES   REMARKS
WILLISTON      CLOUDY    16   9  74 SE9       29.99F WCI   4
MINOT          CLOUDY    13   0  56 SE16G25   30.13F WCI  -3
DICKINSON      LGT SNOW  11   8  88 SE15G30   29.98S VSB 1   WCI  -5
BEACH          CLOUDY    19  19 100 SE18G26   29.95F WCI   4
CROSBY         CLOUDY    14  10  85 S15G25    30.02F WCI  -1
TIOGA          PTSUNNY   10  10 100 SE23G29   30.05F FOG     WCI -10
WATFORD CITY   PTSUNNY   14   9  79 SE13G18   30.01F WCI   0
BISMARCK       CLOUDY    11  -1  58 SE21      30.22F WCI  -8
GRAND FORKS    CLOUDY    -3 -11  68 SE14      30.52F WCI -22
FARGO          CLOUDY     0  -9  65 SE13      30.52F WCI -18
BUFFALO SD       N/A     22  19  89 SE14      29.90F WCI   9
RAPID CITY     CLOUDY    33  30  88 S13       29.96F WCI  24
$$

REGIONAL REPORTS...WYOMING/IDAHO/WASHINGTON

CITY           SKY/WX    TMP DP  RH WIND       PRES   REMARKS
GILLETTE       CLOUDY    36  30  79 SE3       29.92F
SHERIDAN       CLOUDY    41  31  67 CALM      29.87S
BUFFALO WY     CLOUDY    47  28  47 S3        29.90F
CODY           SUNNY     52  25  35 W9G16     29.93F
YELLOWSTONE LA   N/A     31  17  56 VRB6      30.07F WCI  25
IDAHO FALLS    CLOUDY    21  19  92 SW7       30.16S FOG     WCI  12
SALMON         CLOUDY    32  30  93 SE9       30.15R WCI  24
BOISE          SUNNY     31  30  96 SE3       30.33R FOG
SPOKANE        PTCLDY    37  35  92 SW13      30.19R WCI  29
$$

REGIONAL REPORTS...ALBERTA

CITY           SKY/WX    TMP DP  RH WIND       PRES   REMARKS
EDMONTON       PTCLDY    27  23  86 W8        29.76R WCI  18
CALGARY        MOCLDY    34  28  80 N12       29.83R WCI  25
LETHBRIDGE     MOCLDY    43  25  49 W25G35    29.82R
MEDICINE HAT   CLOUDY    34  30  86 W12       29.78R WCI  25
WATERTON GATE    N/A     37  27  65 SW15G24     N/A  WCI  28
MILK RIVER       N/A     37  27  65 W20         N/A  WCI  27
ONEFOUR          N/A     25  25 100 NE1         N/A
$$

REGIONAL REPORTS...SASKATCHEWAN

CITY           SKY/WX    TMP DP  RH WIND       PRES   REMARKS
SWIFT CURRENT  MOSUNNY   25  23  93 S20G26    29.71F WCI  11
REGINA         FLURRIES  14  10  85 S21G28    29.91F WCI  -4
SASKATOON      CLOUDY    16  12  86 SE12G18   29.83F WCI   3
CYPRESS HILLS    N/A     23  21  93 W2          N/A
VAL MARIE        N/A     21  19  93 SW6         N/A  WCI  14
ROCKGLEN         N/A     12  10  92 S17         N/A  WCI  -5
ASSINIBOIA       N/A     21  19  93 S7          N/A  WCI  13
$$




USA.gov is the U.S. government's official web portal to all federal, state and local government web resources and services.